TimeAKST,TemperatureF,Dew PointF,Humidity,Sea Level PressureIn,VisibilityMPH,Wind Direction,Wind SpeedMPH,Gust SpeedMPH,PrecipitationIn,Events,Conditions,WindDirDegrees,DateUTC
12:16 AM,33.8,30.2,87,30.05,5.0,West,9.2,-,N/A,,Overcast,270,2012-11-12 09:16:00
12:36 AM,33.8,30.2,87,30.05,5.0,West,10.4,-,N/A,,Overcast,260,2012-11-12 09:36:00
12:56 AM,33.8,30.2,87,30.06,2.0,West,9.2,-,N/A,,Overcast,280,2012-11-12 09:56:00
1:16 AM,33.8,30.2,87,30.07,5.0,West,8.1,-,N/A,,Overcast,270,2012-11-12 10:16:00
1:36 AM,33.8,30.2,87,30.08,5.0,West,8.1,-,N/A,,Overcast,270,2012-11-12 10:36:00
1:56 AM,33.8,30.2,87,30.09,3.0,West,9.2,-,N/A,,Overcast,270,2012-11-12 10:56:00
2:16 AM,33.8,30.2,87,30.09,3.0,West,10.4,-,N/A,,Overcast,270,2012-11-12 11:16:00
2:36 AM,33.8,30.2,87,30.08,8.0,West,9.2,-,N/A,,Overcast,260,2012-11-12 11:36:00
2:56 AM,33.8,32.0,93,30.09,5.0,WSW,8.1,-,N/A,,Overcast,250,2012-11-12 11:56:00
3:16 AM,33.8,30.2,87,30.09,6.0,West,9.2,-,N/A,,Overcast,270,2012-11-12 12:16:00
3:36 AM,33.8,32.0,93,30.09,5.0,West,9.2,-,N/A,,Overcast,270,2012-11-12 12:36:00
3:56 AM,33.8,30.2,87,30.10,9.0,West,11.5,-,N/A,,Overcast,280,2012-11-12 12:56:00
4:16 AM,33.8,30.2,87,30.11,8.0,WSW,11.5,-,N/A,,Overcast,250,2012-11-12 13:16:00
4:36 AM,33.8,30.2,87,30.10,10.0,West,6.9,-,N/A,,Overcast,270,2012-11-12 13:36:00
4:56 AM,33.8,32.0,93,30.10,8.0,West,6.9,-,N/A,,Overcast,260,2012-11-12 13:56:00
5:16 AM,33.8,30.2,87,30.10,9.0,WSW,8.1,-,N/A,,Overcast,250,2012-11-12 14:16:00
5:36 AM,33.8,30.2,87,30.10,9.0,WSW,8.1,-,N/A,,Overcast,240,2012-11-12 14:36:00
5:56 AM,33.8,30.2,87,30.10,10.0,West,8.1,-,N/A,,Overcast,270,2012-11-12 14:56:00
6:16 AM,33.8,30.2,87,30.10,8.0,West,5.8,-,N/A,,Overcast,270,2012-11-12 15:16:00
6:36 AM,33.8,30.2,87,30.10,8.0,WNW,4.6,-,N/A,,Overcast,290,2012-11-12 15:36:00
6:56 AM,33.8,30.2,87,30.11,7.0,West,6.9,-,N/A,,Overcast,270,2012-11-12 15:56:00
7:16 AM,33.8,30.2,87,30.11,10.0,WSW,6.9,-,N/A,,Overcast,240,2012-11-12 16:16:00
7:36 AM,33.8,30.2,87,30.11,8.0,West,5.8,-,N/A,,Overcast,260,2012-11-12 16:36:00
7:56 AM,33.8,30.2,87,30.11,5.0,SW,5.8,-,N/A,,Overcast,230,2012-11-12 16:56:00
8:16 AM,33.8,30.2,87,30.11,8.0,WSW,5.8,-,N/A,,Overcast,250,2012-11-12 17:16:00
8:36 AM,33.8,28.4,81,30.11,7.0,West,4.6,-,N/A,,Overcast,260,2012-11-12 17:36:00
8:56 AM,33.8,28.4,81,30.12,5.0,Calm,Calm,-,N/A,,Overcast,0,2012-11-12 17:56:00
9:16 AM,33.8,28.4,81,30.12,7.0,SSW,6.9,-,N/A,,Overcast,210,2012-11-12 18:16:00
9:36 AM,33.8,28.4,81,30.12,8.0,SSW,3.5,-,N/A,,Overcast,210,2012-11-12 18:36:00
9:56 AM,33.8,28.4,81,30.13,4.0,Calm,Calm,-,N/A,,Overcast,0,2012-11-12 18:56:00
10:16 AM,33.8,30.2,87,30.13,2.0,Calm,Calm,-,N/A,,Overcast,0,2012-11-12 19:16:00
10:36 AM,32.0,30.2,93,30.12,2.0,Calm,Calm,-,N/A,,Overcast,0,2012-11-12 19:36:00
10:56 AM,32.0,30.2,93,30.12,2.5,Calm,Calm,-,N/A,,Overcast,0,2012-11-12 19:56:00
11:16 AM,32.0,30.2,93,30.12,1.2,West,3.5,-,N/A,,Overcast,280,2012-11-12 20:16:00
11:36 AM,33.8,30.2,87,30.12,10.0,Calm,Calm,-,N/A,,Overcast,0,2012-11-12 20:36:00
11:56 AM,33.8,30.2,87,30.12,10.0,Calm,Calm,-,N/A,,Overcast,0,2012-11-12 20:56:00
12:16 PM,33.8,30.2,87,30.12,10.0,Calm,Calm,-,N/A,,Overcast,0,2012-11-12 21:16:00
12:36 PM,32.0,30.2,93,30.11,9.0,Calm,Calm,-,N/A,,Overcast,0,2012-11-12 21:36:00
12:56 PM,33.8,30.2,87,30.10,10.0,North,3.5,-,N/A,,Overcast,360,2012-11-12 21:56:00
1:36 PM,33.8,30.2,87,30.09,7.0,NE,3.5,-,N/A,,Overcast,40,2012-11-12 22:36:00
1:56 PM,33.8,30.2,87,30.08,2.0,ENE,5.8,-,N/A,,Overcast,60,2012-11-12 22:56:00
2:16 PM,33.8,30.2,87,30.09,6.0,NE,5.8,-,N/A,,Overcast,50,2012-11-12 23:16:00
2:36 PM,33.8,30.2,87,30.08,10.0,ENE,5.8,-,N/A,,Mostly Cloudy,60,2012-11-12 23:36:00
2:56 PM,33.8,30.2,87,30.08,10.0,ENE,5.8,-,N/A,,Partly Cloudy,60,2012-11-12 23:56:00
3:16 PM,33.8,30.2,87,30.07,10.0,ENE,6.9,-,N/A,,Partly Cloudy,70,2012-11-13 00:16:00
3:36 PM,33.8,28.4,81,30.05,10.0,ENE,8.1,-,N/A,,Clear,60,2012-11-13 00:36:00
3:56 PM,33.8,30.2,87,30.05,10.0,NE,8.1,-,N/A,,Clear,40,2012-11-13 00:56:00
4:16 PM,33.8,28.4,81,30.05,10.0,NE,6.9,-,N/A,,Clear,40,2012-11-13 01:16:00
4:36 PM,32.0,28.4,87,30.04,10.0,NE,8.1,-,N/A,,Clear,50,2012-11-13 01:36:00
4:56 PM,32.0,28.4,87,30.04,10.0,NE,8.1,-,N/A,,Clear,40,2012-11-13 01:56:00
5:16 PM,30.2,28.4,93,30.03,10.0,NE,8.1,-,N/A,,Clear,50,2012-11-13 02:16:00
5:36 PM,30.2,28.4,93,30.02,10.0,NE,10.4,-,N/A,,Clear,40,2012-11-13 02:36:00
5:56 PM,30.2,28.4,93,30.01,10.0,NE,9.2,-,N/A,,Partly Cloudy,50,2012-11-13 02:56:00
6:16 PM,32.0,30.2,93,29.99,10.0,ENE,12.7,-,N/A,,Partly Cloudy,60,2012-11-13 03:16:00
6:36 PM,32.0,28.4,87,29.97,10.0,ENE,10.4,-,N/A,,Clear,60,2012-11-13 03:36:00
6:56 PM,32.0,30.2,93,29.97,10.0,ENE,10.4,-,N/A,,Clear,60,2012-11-13 03:56:00
7:16 PM,32.0,30.2,93,29.95,10.0,ENE,10.4,-,N/A,,Clear,60,2012-11-13 04:16:00
7:36 PM,32.0,28.4,87,29.94,10.0,ENE,9.2,-,N/A,,Clear,70,2012-11-13 04:36:00
7:56 PM,32.0,28.4,87,29.94,10.0,ENE,6.9,-,N/A,,Clear,60,2012-11-13 04:56:00
8:16 PM,32.0,28.4,87,29.92,10.0,NE,8.1,-,N/A,,Clear,50,2012-11-13 05:16:00
8:36 PM,32.0,30.2,93,29.92,10.0,NE,6.9,-,N/A,,Clear,40,2012-11-13 05:36:00
8:56 PM,32.0,28.4,87,29.91,10.0,NE,6.9,-,N/A,,Clear,40,2012-11-13 05:56:00
9:16 PM,33.8,30.2,87,29.90,10.0,NE,8.1,-,N/A,,Clear,40,2012-11-13 06:16:00
9:36 PM,33.8,30.2,87,29.89,10.0,NNE,4.6,-,N/A,,Clear,30,2012-11-13 06:36:00
9:56 PM,33.8,30.2,87,29.88,10.0,NNE,8.1,-,N/A,,Clear,30,2012-11-13 06:56:00
10:16 PM,33.8,30.2,87,29.88,10.0,North,4.6,-,N/A,,Clear,360,2012-11-13 07:16:00
10:36 PM,39.2,28.4,65,29.87,10.0,Calm,Calm,-,N/A,,Clear,0,2012-11-13 07:36:00
10:56 PM,41.0,26.6,57,29.85,10.0,SE,8.1,-,N/A,,Clear,140,2012-11-13 07:56:00
11:16 PM,42.8,26.6,53,29.84,10.0,SSE,16.1,-,N/A,,Clear,150,2012-11-13 08:16:00
11:36 PM,44.6,28.4,53,29.83,10.0,SSE,15.0,-,N/A,,Clear,150,2012-11-13 08:36:00
11:56 PM,44.6,28.4,53,29.83,10.0,SSE,16.1,-,N/A,,Clear,150,2012-11-13 08:56:00